Content
SEND FEEDBACK

Daily
Averages
Monthly
Summary
United States of America

MEXICO, MISSOURI


Home > North America > United States > Missouri
Elevation: 820 feet     Latitude: 39 10N     Longitude: 091 54W

WEATHER
 
SELECT A DAY
Number of Records: 206,957;   Date Range: 1/1/95 - 12/24/14
 
SHARE

PRINT THIS DATA

[ ← Previous Day ]
WEATHER ALMANAC - JANUARY 9, 2013
[ Next Day → ]
[ °C ]   °F
Weather ElementAverageHighLow
Temperature44.6 °F55 °F (1:54 pm)37.4 °F (8:54 am)
Dewpoint32.2 °F36 °F (1:54 am)23 °F (5:54 pm)
Humidity63.7 %93 % (8:54 am)37 % (5:54 pm)
Barometer30.38 in30.45 in (6:54 pm)30.22 in (1:54 am)
Wind Speed6.2 mph10.4 mph (10:54 pm)
Weather ElementAverage
Visibility9.9 mi
Wind DirectionSSE (156.5 °)

Weather ElementTotal
Precipitation---
Heating Degree Days18.8 (Base 65)
Averaged from 23 records on January 9, 2013
WEATHER CONDITIONS BREAKOUT
WIND DIRECTION BREAKOUT
WEATHER BY HOUR - JANUARY 9, 2013
[ °C ]   °F
Local TimeTemperatureDewpointHumidityBarometerVisibilityWind DirectionWind SpeedGust SpeedPrecipitationEventsConditions
1:54 AM44.1 °F36.0 °F73 %30.22 in10.0 miWSW (240°)5.8 mphClear
2:54 AM41.0 °F35.1 °F79 %30.25 in10.0 miWSW (240°)8.1 mphClear
3:54 AM41.0 °F36.0 °F82 %30.27 in10.0 miWest (280°)6.9 mphClear
4:54 AM39.0 °F35.1 °F86 %30.28 in10.0 miWest (280°)8.1 mphClear
5:54 AM39.0 °F35.1 °F86 %30.30 in10.0 miWNW (300°)6.9 mphClear
6:54 AM37.9 °F35.1 °F89 %30.33 in10.0 miWNW (290°)4.6 mphClear
7:54 AM37.9 °F35.1 °F89 %30.36 in10.0 miCalmClear
8:54 AM37.4 °F35.6 °F93 %30.38 in7.0 miSW (230°)3.5 mphClear
9:54 AM45.0 °F35.1 °F68 %30.42 in10.0 miWNW (290°)3.5 mphClear
10:54 AM48.9 °F35.1 °F59 %30.41 in10.0 miCalmClear
11:54 AM53.1 °F34.0 °F48 %30.40 in10.0 miNorth (350°)4.6 mphClear
12:54 PM54.0 °F33.1 °F45 %30.39 in10.0 miNorth (10°)5.8 mphClear
1:54 PM55.0 °F33.1 °F43 %30.40 in10.0 miNorth (360°)5.8 mphClear
2:54 PM55.0 °F33.1 °F43 %30.40 in10.0 miNE (40°)9.2 mphClear
3:54 PM53.1 °F35.1 °F50 %30.42 in10.0 miENE (60°)4.6 mphClear
4:54 PM46.9 °F27.0 °F46 %30.42 in10.0 miNNE (30°)9.2 mphClear
5:54 PM48.0 °F23.0 °F37 %30.43 in10.0 miNE (40°)4.6 mphClear
6:54 PM45.0 °F30.0 °F56 %30.45 in10.0 miEast (100°)5.8 mphClear
7:54 PM42.1 °F30.0 °F62 %30.44 in10.0 miEast (80°)8.1 mphClear
8:54 PM41.0 °F28.9 °F62 %30.45 in10.0 miEast (90°)9.2 mphClear
9:54 PM41.0 °F27.0 °F57 %30.44 in10.0 miEast (90°)9.2 mphClear
10:54 PM41.0 °F27.0 °F57 %30.42 in10.0 miEast (100°)10.4 mphClear
11:54 PM39.9 °F25.0 °F55 %30.41 in10.0 miEast (100°)8.1 mphClear
Hourly data recorded from KCOU, located miles away from Mexico, Missouri







STORIES FROM OUR PARTNERS